Simultaneous Nadir Overpasses (SNOs) Predictions

Prediction of SNOs between METOP-C and LANDSAT-8 Satellite Orbit:

Table of predicted SNOs for the next 14.0 days since TLE Epoch: 1/21/2023
Index Date (METOP-C) Time (METOP-C) Lat,Lon (METOP-C) SZA (METOP-C ) Date (LANDSAT-8) Time (LANDSAT-8) Lat,Lon (LANDSAT-8) SZA (LANDSAT-8 ) Distance(km) Time Diff (sec)
1 01/22/2023 03:42:47 81.10, 163.47 102.46 01/22/2023 03:43:06 81.10, 163.62 102.48 2.53 19
2 01/22/2023 04:33:25 -81.13, -28.34 77.45 01/22/2023 04:32:32 -81.12, -28.40 77.48 1.24 53
3 01/24/2023 23:17:11 81.11,-129.83 101.82 01/24/2023 23:17:22 81.12,-129.68 101.85 2.93 11
4 01/25/2023 00:07:49 -81.14, 38.43 78.09 01/25/2023 00:06:48 -81.14, 38.33 78.12 1.77 61
5 01/27/2023 18:51:35 81.12, -63.25 101.12 01/27/2023 18:51:38 81.12, -63.26 101.12 0.29 3
6 01/27/2023 19:42:14 -81.14, 104.71 78.82 01/27/2023 19:41:04 -81.14, 104.76 78.84 1.02 70
7 01/30/2023 13:35:19 -81.09,-164.76 79.70 01/30/2023 13:36:27 -81.10,-164.77 79.68 0.36 68
8 01/30/2023 14:25:58 81.12, 3.21 100.37 01/30/2023 14:25:52 81.12, 3.22 100.37 0.36 6
9 02/02/2023 09:09:44 -81.08, -98.70 80.54 02/02/2023 09:10:42 -81.08, -98.56 80.51 2.45 58



Historial Predications of SNOs between METOP-C and LANDSAT-8
